Benbecula, United Kingdom

1:26 AM BST on April 24, 2017 (GMT +0100)
Benbecula

Weather History for EGPL - January, 2013

Change the Weather History Date:

Wednesday, January 2, 2013

  Actual Average Record
Temperature  
Mean Temperature 46 °F -  
Max Temperature 51 °F 43 °F 51 °F (2013)
Min Temperature 42 °F 38 °F 26 °F (2009)
Degree Days  
Heating Degree Days 18    
Moisture  
Dew Point 47 °F    
Average Humidity 95    
Maximum Humidity 100    
Minimum Humidity 81    
Precipitation  
Precipitation 0.00 in - - ()
Sea Level Pressure  
Sea Level Pressure 29.83 in    
Wind  
Wind Speed 14 mph ()    
Max Wind Speed 23 mph    
Max Gust Speed -    
Visibility 3.4 miles    
Events Rain    
Averages and records for this station are not official NWS values.
T = Trace of Precipitation, MM = Missing Value Source: Averaged Metar Reports

Daily Weather History Graph

Daily Weather History Graph

Search for Another Location

Airport or City:

Trip Planner

Search our weather history database for the weather conditions in past years. The results will help you decide how hot, cold, wet, or windy it might be!

Date:

Astronomy

Jan. 02, 2013 Rise Set
Actual Time 9:10 AM GMT 3:57 PM GMT
Civil Twilight 8:20 AM GMT 4:46 PM GMT
Nautical Twilight 7:29 AM GMT 5:37 PM GMT
Astronomical Twilight 6:42 AM GMT 6:25 PM GMT
Moon 10:30 PM GMT (1/2) 10:36 AM GMT (1/2)
Length of Visible Light 8h 26m
Length of Day
6h 46m
Waning Gibbous, 77% of the Moon is Illuminated
Jan 2
Waning Gibbous
Jan 5
Last Quarter
Jan 11
New
Jan 18
First Quarter
Jan 27
Full

Hourly Weather History & Observations

Time (GMT) Temp. Windchill Dew Point Humidity Pressure Visibility Wind Dir Wind Speed Gust Speed Precip Events Conditions
12:20 AM 42.8 °F 39.3 °F 39.2 °F 87% 29.86 in 6.2 mi South 5.8 mph - N/A   Unknown
12:50 AM 44.6 °F 42.2 °F 39.2 °F 81% 29.86 in 6.2 mi SSW 4.6 mph - N/A   Unknown
1:20 AM 44.6 °F 41.4 °F 41.0 °F 87% 29.86 in 6.2 mi SSW 5.8 mph - N/A   Unknown
1:50 AM 46.4 °F 42.4 °F 41.0 °F 81% 29.86 in 6.2 mi SSW 8.1 mph - N/A   Light Drizzle
2:20 AM 44.6 °F 38.8 °F 39.2 °F 81% 29.86 in 6.2 mi SSW 11.5 mph - N/A Rain Light Rain
2:50 AM 44.6 °F 38.4 °F 41.0 °F 87% 29.83 in 6.2 mi South 12.7 mph - N/A   Drizzle
3:20 AM 42.8 °F 35.8 °F 41.0 °F 93% 29.80 in 6.2 mi SSE 13.8 mph - N/A   Light Drizzle
3:50 AM 44.6 °F 38.1 °F 42.8 °F 93% 29.80 in 5.0 mi South 13.8 mph - N/A   Light Drizzle
4:20 AM 44.6 °F 37.4 °F 42.8 °F 93% 29.77 in 3.1 mi South 16.1 mph - N/A   Drizzle
4:50 AM 44.6 °F 37.2 °F 42.8 °F 93% 29.77 in - South 17.3 mph - N/A   Light Drizzle
5:20 AM 46.4 °F 40.1 °F 44.6 °F 93% 29.77 in - South 15.0 mph - N/A   Light Drizzle
5:50 AM 46.4 °F 39.0 °F 44.6 °F 93% 29.74 in - South 19.6 mph - N/A   Heavy Drizzle
6:20 AM 48.2 °F - 46.4 °F 93% 29.74 in 1.9 mi South 19.6 mph - N/A   Drizzle
6:50 AM 48.2 °F - 48.2 °F 100% 29.74 in 1.5 mi SSW 17.3 mph - N/A Rain Light Rain
7:20 AM 50.0 °F - 48.2 °F 94% 29.74 in 1.6 mi SSW 15.0 mph - N/A   Light Drizzle
7:50 AM 50.0 °F - 50.0 °F 100% 29.74 in 1.9 mi SW 17.3 mph - N/A   Overcast
8:20 AM 48.2 °F - 46.4 °F 93% 29.77 in 4.3 mi WSW 19.6 mph - N/A   Overcast
8:50 AM 50.0 °F - 48.2 °F 94% 29.77 in 1.9 mi WSW 18.4 mph - N/A   Overcast
9:20 AM 50.0 °F - 48.2 °F 94% 29.77 in 0.7 mi WSW 18.4 mph - N/A   Overcast
9:50 AM 50.0 °F - 48.2 °F 94% 29.80 in 1.2 mi SW 17.3 mph - N/A   Haze
10:20 AM 50.0 °F - 50.0 °F 100% 29.80 in 1.2 mi SW 19.6 mph - N/A   Haze
10:50 AM 50.0 °F - 50.0 °F 100% 29.80 in 1.6 mi SW 17.3 mph - N/A Rain Light Rain
11:20 AM 50.0 °F - 50.0 °F 100% 29.80 in 2.2 mi SW 18.4 mph - N/A Rain Light Rain
11:50 AM 50.0 °F - 50.0 °F 100% 29.80 in 1.9 mi SW 20.7 mph - N/A Rain Light Rain
12:20 PM 51.8 °F - 50.0 °F 94% 29.80 in 3.7 mi SW 20.7 mph - N/A Rain Light Rain
12:50 PM 51.8 °F - 50.0 °F 94% 29.83 in 5.6 mi WSW 21.9 mph - N/A   Mostly Cloudy
1:20 PM 50.0 °F - 50.0 °F 100% 29.83 in 4.3 mi SW 20.7 mph - N/A   Overcast
1:50 PM 50.0 °F - 50.0 °F 100% 29.83 in 4.3 mi SW 19.6 mph - N/A   Overcast
2:20 PM 50.0 °F - 50.0 °F 100% 29.83 in 2.8 mi SW 19.6 mph - N/A   Overcast
2:50 PM 50.0 °F - 50.0 °F 100% 29.83 in 2.5 mi SW 19.6 mph - N/A Rain Light Rain
3:20 PM 50.0 °F - 50.0 °F 100% 29.83 in 1.9 mi SW 19.6 mph - N/A Rain Light Rain
3:50 PM 50.0 °F - 50.0 °F 100% 29.83 in 3.1 mi SW 20.7 mph - N/A Rain Light Rain
4:20 PM 50.0 °F - 50.0 °F 100% 29.83 in 1.9 mi SW 21.9 mph - N/A Rain Light Rain
4:50 PM 50.0 °F - 50.0 °F 100% 29.83 in 1.9 mi SW 21.9 mph - N/A Rain Light Rain
5:20 PM 50.0 °F - 50.0 °F 100% 29.83 in 3.1 mi SW 21.9 mph - N/A   Mostly Cloudy
5:50 PM 51.8 °F - 50.0 °F 94% 29.83 in 3.1 mi SW 20.7 mph - N/A   Mostly Cloudy
6:20 PM 51.8 °F - 50.0 °F 94% 29.83 in 3.1 mi SW 23.0 mph - N/A   Mostly Cloudy
6:50 PM 50.0 °F - 50.0 °F 100% 29.86 in 3.7 mi SW 23.0 mph - N/A   Mostly Cloudy
7:20 PM 51.8 °F - 50.0 °F 94% 29.86 in 3.1 mi SW 21.9 mph - N/A   Scattered Clouds
7:50 PM 51.8 °F - 50.0 °F 94% 29.86 in 3.1 mi SW 21.9 mph - N/A   Mostly Cloudy
8:20 PM 51.8 °F - 50.0 °F 94% 29.89 in 3.1 mi SW 23.0 mph - N/A   Mostly Cloudy
8:50 PM 51.8 °F - 50.0 °F 94% 29.89 in 3.1 mi WSW 20.7 mph - N/A   Mostly Cloudy
9:20 PM 51.8 °F - 50.0 °F 94% 29.89 in 3.7 mi WSW 21.9 mph - N/A   Mostly Cloudy
9:50 PM 50.0 °F - 48.2 °F 94% 29.92 in - WSW 19.6 mph - N/A   Haze
10:20 PM 50.0 °F - 48.2 °F 94% 29.92 in 3.1 mi SW 20.7 mph - N/A   Scattered Clouds
10:50 PM 50.0 °F - 48.2 °F 94% 29.92 in 3.1 mi WSW 20.7 mph - N/A   Mostly Cloudy
11:20 PM 50.0 °F - 48.2 °F 94% 29.92 in - WSW 19.6 mph - N/A   Drizzle
11:50 PM 50.0 °F - 48.2 °F 94% 29.95 in - WSW 21.9 mph - N/A   Drizzle